Weather in Berezovskiy

Russia / Kemerovo Oblast     55°40′09″N   86°16′28″E
temp.,
°C
wind,
m/s
gust,
m/s
humid.,
%
clouds,
%
prec.,
mm/h
press.,
hPa
HPBL,
m
8 may, sat
sat801:00+9w2861100 0.0 1014245
04:00+6w22740 0.0 101636
07:00+7sw310672 0.0 1016408
10:00+12w611370 0.0 10161740
13:00+15w7133590 0.0 10142537
16:00+14w6124812 0.0 10132127
19:00+13w61659100 0.2 10142013
22:00+9wnw267660 0.1 1014127
9 may, sun
sun901:00+6nnw117786 0.1 101614
04:00+3nnw27865 0.0 1018281
07:00+3nnw37755 0.0 1019431
10:00+7n355373 0.0 10191410
13:00+10n453998 0.0 10191990
16:00+11nne453699 0.0 10202290
19:00+10ne35415 0.0 10211876
22:00+4ene23675 0.0 102250
10 may, mon
mon1001:00+2ne29825 0.0 1023233
04:00+1ne28934 0.0 1023201
07:00+3ene39855 0.0 1024330
10:00+9ene465726 0.0 10231188
13:00+12ene57422 0.0 10211577
16:00+12ene68458 0.0 10191621
19:00+11ene585429 0.0 10191511
22:00+8ene511624 0.0 1019795
11 may, tue
tue1101:00+5ne311744 0.0 1018289
04:00+4ne311861 0.0 1017236
07:00+6ne412770 0.0 1017455
10:00+11ene610532 0.0 10161221
13:00+15ene683857 0.0 10142022
16:00+16ene673498 0.0 10132408
19:00+14ne4742100 0.0 10141154
22:00+9ne31058100 0.0 1015256
12 may, wed
wed1201:00+9ne41263100 0.0 1015352
04:00+7ne31070100 0.0 1015254
07:00+8ne3970100 0.0 1016314
10:00+11ne4752100 0.0 1016761
13:00+14ne4542100 0.0 10162178
16:00+13ne3549100 0.0 10161445
19:00+13nne2445100 0.0 1016697
22:00+8ne2260100 0.0 101827